sat.trackr.live / text

‹ back to catalog

STARLINK-3249

NORAD 49730 · 2021-115G

PAYLOAD ACTIVE UNKNOWN

§ Identity

Operator
Country
US
Launch date
2021-12-02
Launch site
AFETR
Launch vehicle
Mass (kg)
RCS (m²)

Purposes: comms

External: N2YO · Heavens-Above · Gunter

§ Orbital elements

Epoch: 2026-09-12T15:20:40.040448Z

Period
93.85 min
Inclination
53.1623°
Eccentricity
0.0001109
Mean motion
15.34391165 rev/d
Perigee alt
462.0 km
Apogee alt
463.5 km
Semi-major
6,840.9 km
B*
3.9922e-6
RAAN
26.6187°
Arg perigee
79.5761°
Mean anomaly
280.5366°
Rev number
26,379

§ Raw data

STARLINK-32491 49730U 21115G   26255.63935232 -.00000241  00000+0  39922-5 0  99932 49730  53.1623  26.6187 0001109  79.5761 280.5366 15.34391165263796

JSON: /api/v1/satellites/49730 · /tle

For live sub-satellite position, see the globe view (requires WebGL).

§ Visibility from observer

Set your observer location to see the next 7 days of passes ≥ 10°. The values pass through the URL so the page stays shareable.

No JS? Fill the form by hand. The geolocation button needs JavaScript.